Вернуться в каталог

SL-8 R/B

АктивенLEO
NORAD 13168·ROCKET BODY·🇷🇺 Russia

Запущен May 6, 1982 с Plesetsk Cosmodrome

Loading…

Ближайшие Пролёты (ближайшие 24 часа)

TLE

СвежийSource: Space-Track

Эпоха: Sep 14, 2026, 15:28 UTC

1 13168U 82040J   26257.64488570 -.00000082  00000-0 -61775-3 0  9998
2 13168  74.0471 228.7384 0135244 119.5390 241.9208 12.22880467980356

Отслеживайте SL-8 R/B в реальном времени с AllMySat

Download on the App Store